Time,TemperatureF,DewpointF,PressureIn,WindDirection,WindDirectionDegrees,WindSpeedMPH,WindSpeedGustMPH,Humidity,HourlyPrecipIn,Conditions,Clouds,dailyrainin,SoftwareType,DateUTC
2013-01-24 00:07:00,38.8,38.0,30.10,SW,221,0.0,7.0,96,0.00,,,0.00,weatherlink.com 1.10,2013-01-24 08:07:00,
2013-01-24 00:22:00,38.9,38.0,30.11,SW,216,8.0,11.0,95,0.00,,,0.00,weatherlink.com 1.10,2013-01-24 08:22:00,
2013-01-24 00:37:00,39.0,38.0,30.11,WNW,284,3.0,11.0,94,0.00,,,0.00,weatherlink.com 1.10,2013-01-24 08:37:00,
2013-01-24 00:52:00,39.0,37.0,30.11,SW,217,2.0,8.0,92,0.00,,,0.00,weatherlink.com 1.10,2013-01-24 08:52:00,
2013-01-24 01:07:00,38.7,37.0,30.12,SSW,207,7.0,9.0,92,0.00,,,0.00,weatherlink.com 1.10,2013-01-24 09:07:00,
2013-01-24 01:22:00,38.6,37.0,30.12,East,99,2.0,6.0,93,0.00,,,0.00,weatherlink.com 1.10,2013-01-24 09:22:00,
2013-01-24 01:38:00,37.9,36.0,30.14,East,88,3.0,8.0,94,0.00,,,0.00,weatherlink.com 1.10,2013-01-24 09:38:00,
2013-01-24 01:53:00,37.7,36.0,30.14,ENE,73,4.0,7.0,94,0.00,,,0.00,weatherlink.com 1.10,2013-01-24 09:53:00,
2013-01-24 02:07:00,38.4,37.0,30.15,ENE,67,0.0,8.0,93,0.00,,,0.00,weatherlink.com 1.10,2013-01-24 10:07:00,
2013-01-24 02:22:00,38.4,36.0,30.15,East,82,1.0,5.0,92,0.00,,,0.00,weatherlink.com 1.10,2013-01-24 10:22:00,
2013-01-24 02:37:00,37.5,36.0,30.16,SW,233,5.0,6.0,93,0.00,,,0.00,weatherlink.com 1.10,2013-01-24 10:37:00,
2013-01-24 02:52:00,37.7,36.0,30.16,East,92,3.0,9.0,94,0.00,,,0.00,weatherlink.com 1.10,2013-01-24 10:52:00,
2013-01-24 03:07:00,37.5,36.0,30.16,ESE,113,3.0,4.0,94,0.00,,,0.00,weatherlink.com 1.10,2013-01-24 11:07:00,
2013-01-24 03:23:00,37.4,36.0,30.17,ESE,105,2.0,5.0,94,0.00,,,0.00,weatherlink.com 1.10,2013-01-24 11:23:00,
2013-01-24 03:37:00,37.4,36.0,30.16,East,88,3.0,6.0,95,0.00,,,0.00,weatherlink.com 1.10,2013-01-24 11:37:00,
2013-01-24 03:52:00,37.8,36.0,30.16,East,90,3.0,6.0,94,0.00,,,0.00,weatherlink.com 1.10,2013-01-24 11:52:00,
2013-01-24 04:08:00,37.6,36.0,30.16,ENE,65,3.0,7.0,94,0.00,,,0.00,weatherlink.com 1.10,2013-01-24 12:08:00,
2013-01-24 04:23:00,37.2,36.0,30.16,ENE,65,3.0,4.0,95,0.00,,,0.00,weatherlink.com 1.10,2013-01-24 12:23:00,
2013-01-24 04:38:00,37.2,36.0,30.16,East,84,2.0,5.0,95,0.00,,,0.00,weatherlink.com 1.10,2013-01-24 12:38:00,
2013-01-24 04:53:00,37.7,36.0,30.16,ESE,107,4.0,8.0,94,0.00,,,0.00,weatherlink.com 1.10,2013-01-24 12:53:00,
2013-01-24 05:08:00,37.7,36.0,30.16,East,98,5.0,8.0,95,0.00,,,0.00,weatherlink.com 1.10,2013-01-24 13:08:00,
2013-01-24 05:23:00,37.8,37.0,30.18,ESE,103,1.0,10.0,96,0.00,,,0.00,weatherlink.com 1.10,2013-01-24 13:23:00,
2013-01-24 05:38:00,38.0,37.0,30.18,East,97,6.0,9.0,96,0.00,,,0.00,weatherlink.com 1.10,2013-01-24 13:38:00,
2013-01-24 05:53:00,38.3,38.0,30.18,East,86,7.0,9.0,97,0.00,,,0.00,weatherlink.com 1.10,2013-01-24 13:53:00,
2013-01-24 06:08:00,38.4,37.0,30.19,ESE,120,4.0,12.0,96,0.00,,,0.00,weatherlink.com 1.10,2013-01-24 14:08:00,
2013-01-24 06:23:00,38.4,38.0,30.18,East,88,3.0,8.0,97,0.00,,,0.00,weatherlink.com 1.10,2013-01-24 14:23:00,
2013-01-24 06:38:00,38.3,38.0,30.18,ESE,105,3.0,9.0,97,0.00,,,0.00,weatherlink.com 1.10,2013-01-24 14:38:00,
2013-01-24 06:53:00,38.0,37.0,30.18,ESE,105,4.0,7.0,97,0.00,,,0.00,weatherlink.com 1.10,2013-01-24 14:53:00,
2013-01-24 07:08:00,37.8,37.0,30.17,ESE,102,4.0,10.0,97,0.00,,,0.00,weatherlink.com 1.10,2013-01-24 15:08:00,
2013-01-24 07:23:00,37.7,37.0,30.17,ESE,106,4.0,10.0,97,0.00,,,0.00,weatherlink.com 1.10,2013-01-24 15:23:00,
2013-01-24 07:38:00,37.6,37.0,30.17,ESE,105,3.0,10.0,97,0.00,,,0.00,weatherlink.com 1.10,2013-01-24 15:38:00,
2013-01-24 07:53:00,37.6,37.0,30.17,East,98,6.0,11.0,97,0.00,,,0.00,weatherlink.com 1.10,2013-01-24 15:53:00,
2013-01-24 08:08:00,37.8,37.0,30.16,ESE,115,4.0,11.0,97,0.00,,,0.00,weatherlink.com 1.10,2013-01-24 16:08:00,
2013-01-24 08:23:00,37.8,37.0,30.15,East,100,6.0,11.0,96,0.00,,,0.00,weatherlink.com 1.10,2013-01-24 16:23:00,
2013-01-24 08:38:00,37.8,37.0,30.14,ESE,109,5.0,11.0,96,0.00,,,0.00,weatherlink.com 1.10,2013-01-24 16:38:00,
2013-01-24 08:53:00,37.7,37.0,30.15,ESE,111,9.0,13.0,96,0.00,,,0.00,weatherlink.com 1.10,2013-01-24 16:53:00,
2013-01-24 09:08:00,37.7,36.0,30.14,ESE,103,5.0,17.0,95,0.00,,,0.00,weatherlink.com 1.10,2013-01-24 17:08:00,
2013-01-24 09:38:00,38.2,37.0,30.15,ESE,113,12.0,12.0,96,0.00,,,0.00,weatherlink.com 1.10,2013-01-24 17:38:00,
2013-01-24 09:53:00,38.3,37.0,30.14,ESE,113,9.0,17.0,95,0.00,,,0.00,weatherlink.com 1.10,2013-01-24 17:53:00,
2013-01-24 10:08:00,38.5,37.0,30.14,South,170,6.0,15.0,95,0.00,,,0.00,weatherlink.com 1.10,2013-01-24 18:08:00,
2013-01-24 10:23:00,38.6,37.0,30.15,ESE,105,11.0,11.0,95,0.00,,,0.00,weatherlink.com 1.10,2013-01-24 18:23:00,
2013-01-24 10:38:00,38.5,37.0,30.14,SE,130,6.0,14.0,95,0.00,,,0.00,weatherlink.com 1.10,2013-01-24 18:38:00,
2013-01-24 10:53:00,38.5,37.0,30.14,ESE,123,8.0,16.0,94,0.00,,,0.00,weatherlink.com 1.10,2013-01-24 18:53:00,
2013-01-24 11:08:00,38.7,37.0,30.14,ESE,121,4.0,12.0,94,0.00,,,0.00,weatherlink.com 1.10,2013-01-24 19:08:00,
2013-01-24 11:23:00,39.0,38.0,30.14,ESE,121,4.0,14.0,94,0.00,,,0.00,weatherlink.com 1.10,2013-01-24 19:23:00,
2013-01-24 11:38:00,39.2,38.0,30.14,SE,125,5.0,15.0,94,0.00,,,0.00,weatherlink.com 1.10,2013-01-24 19:38:00,
2013-01-24 11:53:00,39.4,37.0,30.12,ESE,103,7.0,16.0,91,0.00,,,0.00,weatherlink.com 1.10,2013-01-24 19:53:00,
2013-01-24 12:08:00,39.5,37.0,30.10,East,100,10.0,18.0,90,0.00,,,0.00,weatherlink.com 1.10,2013-01-24 20:08:00,
2013-01-24 12:38:00,39.8,36.0,30.09,ESE,103,4.0,15.0,86,0.00,,,0.00,weatherlink.com 1.10,2013-01-24 20:38:00,
2013-01-24 12:53:00,39.7,36.0,30.09,ESE,116,8.0,16.0,86,0.00,,,0.00,weatherlink.com 1.10,2013-01-24 20:53:00,
2013-01-24 13:08:00,39.8,36.0,30.09,East,80,10.0,15.0,85,0.00,,,0.00,weatherlink.com 1.10,2013-01-24 21:08:00,
2013-01-24 13:23:00,39.8,36.0,30.08,East,98,3.0,16.0,86,0.00,,,0.00,weatherlink.com 1.10,2013-01-24 21:23:00,
2013-01-24 13:38:00,39.7,36.0,30.06,East,99,14.0,16.0,85,0.00,,,0.00,weatherlink.com 1.10,2013-01-24 21:38:00,
2013-01-24 13:53:00,39.7,35.0,30.05,ESE,111,7.0,22.0,83,0.00,,,0.00,weatherlink.com 1.10,2013-01-24 21:53:00,
2013-01-24 14:09:00,39.7,35.0,30.04,ESE,106,8.0,21.0,83,0.00,,,0.00,weatherlink.com 1.10,2013-01-24 22:09:00,
2013-01-24 14:23:00,39.8,35.0,30.04,ESE,116,8.0,19.0,83,0.00,,,0.00,weatherlink.com 1.10,2013-01-24 22:23:00,
2013-01-24 14:39:00,39.7,35.0,30.05,ESE,122,9.0,17.0,82,0.00,,,0.00,weatherlink.com 1.10,2013-01-24 22:39:00,
2013-01-24 14:54:00,39.9,35.0,30.05,ESE,112,8.0,21.0,81,0.00,,,0.00,weatherlink.com 1.10,2013-01-24 22:54:00,
2013-01-24 15:08:00,39.8,34.0,30.06,ESE,118,8.0,18.0,80,0.00,,,0.00,weatherlink.com 1.10,2013-01-24 23:08:00,
2013-01-24 15:24:00,39.7,34.0,30.05,East,99,6.0,17.0,81,0.00,,,0.00,weatherlink.com 1.10,2013-01-24 23:24:00,
2013-01-24 15:39:00,39.6,35.0,30.05,East,88,3.0,15.0,82,0.00,,,0.00,weatherlink.com 1.10,2013-01-24 23:39:00,
2013-01-24 15:54:00,39.5,35.0,30.04,East,99,2.0,17.0,83,0.00,,,0.00,weatherlink.com 1.10,2013-01-24 23:54:00,
2013-01-24 16:09:00,39.3,34.0,30.04,ESE,109,4.0,13.0,82,0.00,,,0.00,weatherlink.com 1.10,2013-01-25 00:09:00,
2013-01-24 16:23:00,39.9,35.0,30.05,SE,128,2.0,9.0,81,0.00,,,0.00,weatherlink.com 1.10,2013-01-25 00:23:00,
2013-01-24 16:38:00,39.5,35.0,30.06,SE,140,4.0,19.0,84,0.00,,,0.00,weatherlink.com 1.10,2013-01-25 00:38:00,
2013-01-24 16:54:00,38.6,36.0,30.06,ESE,112,4.0,14.0,90,0.00,,,0.00,weatherlink.com 1.10,2013-01-25 00:54:00,
2013-01-24 17:08:00,38.3,36.0,30.04,East,93,13.0,15.0,90,0.00,,,0.00,weatherlink.com 1.10,2013-01-25 01:08:00,
2013-01-24 17:24:00,39.2,35.0,30.04,East,84,8.0,18.0,86,0.01,,,0.01,weatherlink.com 1.10,2013-01-25 01:24:00,
2013-01-24 17:39:00,39.1,37.0,30.03,ESE,122,5.0,14.0,90,0.02,,,0.02,weatherlink.com 1.10,2013-01-25 01:39:00,
2013-01-24 17:54:00,38.6,37.0,30.02,East,91,7.0,20.0,93,0.03,,,0.03,weatherlink.com 1.10,2013-01-25 01:54:00,
2013-01-24 18:09:00,38.2,36.0,30.01,East,99,17.0,25.0,93,0.03,,,0.03,weatherlink.com 1.10,2013-01-25 02:09:00,
2013-01-24 18:24:00,37.9,36.0,30.00,SE,131,10.0,24.0,94,0.03,,,0.04,weatherlink.com 1.10,2013-01-25 02:24:00,
2013-01-24 18:39:00,38.1,37.0,29.99,East,83,17.0,29.0,94,0.02,,,0.04,weatherlink.com 1.10,2013-01-25 02:39:00,
2013-01-24 18:54:00,38.2,37.0,29.99,SE,142,5.0,27.0,95,0.01,,,0.04,weatherlink.com 1.10,2013-01-25 02:54:00,
2013-01-24 19:09:00,38.3,37.0,29.98,ESE,113,13.0,32.0,95,0.01,,,0.04,weatherlink.com 1.10,2013-01-25 03:09:00,
2013-01-24 19:24:00,38.3,37.0,29.98,SE,126,18.0,34.0,95,0.00,,,0.04,weatherlink.com 1.10,2013-01-25 03:24:00,
2013-01-24 19:39:00,38.1,37.0,29.98,ESE,123,14.0,32.0,96,0.00,,,0.04,weatherlink.com 1.10,2013-01-25 03:39:00,
2013-01-24 19:58:00,38.3,37.0,29.99,SE,128,14.0,30.0,96,0.00,,,0.04,weatherlink.com 1.10,2013-01-25 03:58:00,
2013-01-24 20:09:00,38.2,37.0,29.98,SE,134,7.0,23.0,96,0.00,,,0.04,weatherlink.com 1.10,2013-01-25 04:09:00,
2013-01-24 20:24:00,38.2,37.0,29.98,SE,139,10.0,26.0,96,0.00,,,0.04,weatherlink.com 1.10,2013-01-25 04:24:00,
2013-01-24 20:39:00,38.3,37.0,29.99,SE,132,10.0,25.0,96,0.00,,,0.04,weatherlink.com 1.10,2013-01-25 04:39:00,
2013-01-24 20:54:00,38.4,37.0,29.99,SE,143,15.0,25.0,96,0.00,,,0.04,weatherlink.com 1.10,2013-01-25 04:54:00,
2013-01-24 21:09:00,38.6,38.0,29.98,ESE,106,9.0,24.0,96,0.00,,,0.04,weatherlink.com 1.10,2013-01-25 05:09:00,
2013-01-24 21:24:00,38.6,38.0,29.98,ESE,103,20.0,21.0,97,0.00,,,0.04,weatherlink.com 1.10,2013-01-25 05:24:00,
2013-01-24 21:39:00,38.9,38.0,29.97,SSW,207,7.0,24.0,97,0.00,,,0.04,weatherlink.com 1.10,2013-01-25 05:39:00,
2013-01-24 21:54:00,39.1,38.0,29.97,South,171,18.0,29.0,97,0.00,,,0.04,weatherlink.com 1.10,2013-01-25 05:54:00,
2013-01-24 22:09:00,39.3,39.0,29.97,SE,138,12.0,34.0,97,0.00,,,0.04,weatherlink.com 1.10,2013-01-25 06:09:00,
2013-01-24 22:24:00,39.5,39.0,29.97,ESE,119,8.0,24.0,96,0.00,,,0.04,weatherlink.com 1.10,2013-01-25 06:24:00,
2013-01-24 22:39:00,39.8,39.0,29.96,ESE,119,10.0,23.0,96,0.00,,,0.04,weatherlink.com 1.10,2013-01-25 06:39:00,
2013-01-24 22:54:00,40.1,39.0,29.97,ESE,104,9.0,23.0,96,0.00,,,0.04,weatherlink.com 1.10,2013-01-25 06:54:00,
2013-01-24 23:09:00,40.3,39.0,29.98,SE,131,9.0,23.0,95,0.00,,,0.04,weatherlink.com 1.10,2013-01-25 07:09:00,
2013-01-24 23:24:00,40.4,39.0,29.97,SSE,155,12.0,21.0,95,0.00,,,0.04,weatherlink.com 1.10,2013-01-25 07:24:00,
2013-01-24 23:39:00,40.4,39.0,29.98,SE,136,6.0,27.0,96,0.00,,,0.04,weatherlink.com 1.10,2013-01-25 07:39:00,
2013-01-24 23:54:00,40.4,39.0,29.98,ESE,113,8.0,22.0,96,0.00,,,0.04,weatherlink.com 1.10,2013-01-25 07:54:00,